Weather History for KLNK - February, 2014

Change the Weather History Date:

Friday, February 14, 2014

  Actual Average Record
Temperature  
Mean Temperature 25 °F 29 °F  
Max Temperature 33 °F 40 °F 75 °F (1967)
Min Temperature 16 °F 18 °F -15 °F (1936)
Degree Days  
Heating Degree Days 40 36  
Month to date heating degree days 707 533  
Since 1 July heating degree days 4642 4230  
Cooling Degree Days 0 0  
Month to date cooling degree days 0 0  
Year to date cooling degree days 0 0  
Moisture  
Dew Point 16 °F    
Average Humidity 63    
Maximum Humidity 81    
Minimum Humidity 45    
Precipitation  
Precipitation 0.01 in 0.02 in 0.79 in (2003)
Month to date precipitation 0.33 0.36  
Year to date precipitation 0.57 1.00  
Snow  
Snow 0.10 in 0.20 in - ()
Month to date snowfall 5.5 3.0  
Since 1 July snowfall 15.1 17.1  
Snow Depth T in    
Sea Level Pressure  
Sea Level Pressure 29.95 in    
Wind  
Wind Speed 11 mph (NNE)    
Max Wind Speed 23 mph    
Max Gust Speed 27 mph    
Visibility 9 miles    
Events Snow    
T = Trace of Precipitation, MM = Missing Value Source: NWS Daily Summary

Daily Weather History Graph

Daily Weather History Graph

Search for Another Location

Airport or City:

Trip Planner

Search our weather history database for the weather conditions in past years. The results will help you decide how hot, cold, wet, or windy it might be!

Date:

Astronomy

Feb. 14, 2014 Rise Set
Actual Time 7:22 AM CST 6:00 PM CST
Civil Twilight 6:54 AM CST 6:28 PM CST
Nautical Twilight 6:22 AM CST 7:00 PM CST
Astronomical Twilight 5:50 AM CST 7:32 PM CST
Moon 6:05 PM CST (2/14) 6:49 AM CST (2/14)
Length of Visible Light 11h 34m
Length of Day
10h 38m
Full, 100% of the Moon is Illuminated
Feb 14
Full
Feb 14
Full
Feb 22
Last Quarter
Mar 1
New
Mar 8
First Quarter

Hourly Weather History & Observations

Time (CST) Temp. Windchill Dew Point Humidity Pressure Visibility Wind Dir Wind Speed Gust Speed Precip Events Conditions
12:54 AM 28.9 °F 18.2 °F 21.9 °F 75% 29.67 in 10.0 mi East 13.8 mph 23.0 mph 0.01 in   Scattered Clouds
1:54 AM 28.0 °F 19.3 °F 21.9 °F 78% 29.69 in 10.0 mi NNE 9.2 mph - N/A   Overcast
2:28 AM 26.1 °F 15.0 °F 21.0 °F 81% 29.69 in 1.8 mi NE 12.7 mph - 0.00 in Snow Light Snow
2:40 AM 26.1 °F 16.2 °F 21.9 °F 84% 29.66 in 3.0 mi ENE 10.4 mph - 0.00 in Snow Light Snow
2:52 AM 26.6 °F 19.1 °F 21.2 °F 80% 29.63 in 8.0 mi East 6.9 mph - 0.00 in   Overcast
2:54 AM 26.1 °F 17.6 °F 21.9 °F 84% 29.65 in 8.0 mi East 8.1 mph - 0.00 in   Overcast
3:54 AM 26.1 °F 13.1 °F 21.0 °F 81% 29.72 in 10.0 mi North 17.3 mph - N/A   Mostly Cloudy
4:28 AM 25.0 °F 13.6 °F 19.0 °F 78% 29.71 in 10.0 mi North 12.7 mph - N/A   Scattered Clouds
4:54 AM 23.0 °F 10.6 °F 18.0 °F 81% 29.77 in 10.0 mi North 13.8 mph - N/A   Clear
5:54 AM 21.9 °F 8.7 °F 16.0 °F 78% 29.83 in 10.0 mi North 15.0 mph - N/A   Partly Cloudy
6:54 AM 21.0 °F 10.6 °F 16.0 °F 81% 29.88 in 10.0 mi NNW 9.2 mph - N/A   Partly Cloudy
7:54 AM 21.9 °F 8.7 °F 14.0 °F 72% 29.91 in 10.0 mi North 15.0 mph - N/A   Overcast
8:54 AM 21.9 °F 8.7 °F 12.9 °F 68% 29.96 in 10.0 mi North 15.0 mph - N/A   Overcast
9:54 AM 23.0 °F 8.3 °F 10.9 °F 60% 30.00 in 10.0 mi North 19.6 mph - N/A   Overcast
10:44 AM 24.1 °F 12.0 °F 14.0 °F 65% 30.00 in 10.0 mi North 13.8 mph - N/A   Overcast
10:54 AM 24.1 °F 11.5 °F 14.0 °F 65% 30.05 in 10.0 mi North 15.0 mph - N/A   Overcast
11:54 AM 26.1 °F 12.7 °F 16.0 °F 66% 30.08 in 10.0 mi North 18.4 mph - N/A   Overcast
12:54 PM 28.0 °F 16.1 °F 16.0 °F 61% 30.08 in 10.0 mi North 16.1 mph - N/A   Overcast
1:44 PM 30.0 °F 17.9 °F 17.1 °F 59% 30.02 in 10.0 mi North 18.4 mph - N/A   Scattered Clouds
1:54 PM 30.0 °F 18.7 °F 17.1 °F 59% 30.07 in 10.0 mi North 16.1 mph - N/A   Partly Cloudy
2:54 PM 32.0 °F 21.6 °F 16.0 °F 52% 30.09 in 10.0 mi NNW 15.0 mph - N/A   Partly Cloudy
3:54 PM 32.0 °F 22.5 °F 15.1 °F 50% 30.10 in 10.0 mi NNW 12.7 mph - N/A   Clear
4:54 PM 32.0 °F 23.6 °F 14.0 °F 48% 30.11 in 10.0 mi North 10.4 mph - N/A   Clear
5:54 PM 26.1 °F 20.5 °F 12.9 °F 58% 30.14 in 10.0 mi NNE 4.6 mph - N/A   Clear
6:54 PM 21.9 °F 14.5 °F 10.9 °F 63% 30.12 in 10.0 mi NE 5.8 mph - N/A   Clear
7:54 PM 21.9 °F - 12.9 °F 68% 30.13 in 10.0 mi Calm Calm - N/A   Clear
8:54 PM 19.9 °F - 10.9 °F 68% 30.14 in 10.0 mi Calm Calm - N/A   Clear
9:54 PM 19.9 °F - 14.0 °F 78% 30.13 in 10.0 mi Calm Calm - N/A   Clear
10:54 PM 21.9 °F 17.2 °F 14.0 °F 72% 30.12 in 10.0 mi SSE 3.5 mph - N/A   Clear
11:54 PM 21.9 °F 14.5 °F 14.0 °F 72% 30.10 in 10.0 mi SSW 5.8 mph - N/A   Clear